Location: Nairn
(57.5833°N, 3.8667°W)
Time: 01:27:29
(UTC+00:00)

Meteor 2-21 - Pass Details

Date: 07 August 2020
Orbit: 934 x 966 km, 82.6° (Epoch: 25 September)

Event Time Altitude Azimuth Distance (km) Brightness Sun altitude
Rises 03:24:37 0° 346° (NNW) 3,607 8.0 -7.0°
Reaches altitude 10° 03:27:06 10° 345° (NNW) 2,660 7.2 -6.7°
Maximum altitude 03:33:09 74° 262° (W) 979 4.4 -6.2°
Drops below altitude 10° 03:39:11 10° 178° (S) 2,652 6.4 -5.6°
Sets 03:41:40 0° 177° (S) 3,596 7.1 -5.3°
